Location: Newark
(52.2090°N, 4.1550°W)
Time: 13:29:25
(UTC+00:00)

Explorer 7 - Pass Details

Date: 16 September 2019
Orbit: 485 x 680 km, 50.3° (Epoch: 21 October)

Event Time Altitude Azimuth Distance (km) Brightness Sun altitude
Exits shadow 01:37:16 15° 89° (E) 1,791 9.6 -32.1°
Drops below altitude 10° 01:38:10 10° 85° (E) 2,112 10.1 -32.0°
Sets 01:40:39 0° 79° (E) 3,036 11.1 -31.9°
